Time,TemperatureF,DewpointF,PressureIn,WindDirection,WindDirectionDegrees,WindSpeedMPH,WindSpeedGustMPH,Humidity,HourlyPrecipIn,Conditions,Clouds,dailyrainin,SoftwareType,DateUTC
2013-06-18 00:09:00,63.6,56.0,29.83,East,101,0.0,3.0,75,0.00,,,0.00,weatherlink.com 1.10,2013-06-18 05:09:00,
2013-06-18 00:24:00,63.1,55.0,29.83,NE,35,0.0,4.0,75,0.00,,,0.00,weatherlink.com 1.10,2013-06-18 05:24:00,
2013-06-18 00:40:00,62.6,55.0,29.84,NE,34,0.0,3.0,76,0.00,,,0.00,weatherlink.com 1.10,2013-06-18 05:40:00,
2013-06-18 00:55:00,62.1,55.0,29.84,NNW,340,0.0,3.0,78,0.00,,,0.00,weatherlink.com 1.10,2013-06-18 05:55:00,
2013-06-18 01:10:00,61.7,55.0,29.84,NNE,29,0.0,3.0,78,0.00,,,0.00,weatherlink.com 1.10,2013-06-18 06:10:00,
2013-06-18 01:25:00,61.4,55.0,29.84,NNE,28,0.0,1.0,78,0.00,,,0.00,weatherlink.com 1.10,2013-06-18 06:25:00,
2013-06-18 01:40:00,61.0,54.0,29.84,North,349,0.0,4.0,79,0.00,,,0.00,weatherlink.com 1.10,2013-06-18 06:40:00,
2013-06-18 01:55:00,60.5,54.0,29.85,North,355,0.0,5.0,80,0.00,,,0.00,weatherlink.com 1.10,2013-06-18 06:55:00,
2013-06-18 02:10:00,60.1,54.0,29.85,North,10,0.0,3.0,81,0.00,,,0.00,weatherlink.com 1.10,2013-06-18 07:10:00,
2013-06-18 02:25:00,59.5,54.0,29.85,North,9,0.0,4.0,83,0.00,,,0.00,weatherlink.com 1.10,2013-06-18 07:25:00,
2013-06-18 02:40:00,59.1,54.0,29.85,NNE,14,0.0,6.0,82,0.00,,,0.00,weatherlink.com 1.10,2013-06-18 07:40:00,
2013-06-18 02:55:00,58.7,53.0,29.85,NNE,25,2.0,4.0,82,0.00,,,0.00,weatherlink.com 1.10,2013-06-18 07:55:00,
2013-06-18 03:10:00,58.5,53.0,29.86,NNE,26,0.0,4.0,81,0.00,,,0.00,weatherlink.com 1.10,2013-06-18 08:10:00,
2013-06-18 03:25:00,58.2,53.0,29.85,NE,34,1.0,7.0,82,0.00,,,0.00,weatherlink.com 1.10,2013-06-18 08:25:00,
2013-06-18 03:40:00,57.9,52.0,29.85,NE,36,2.0,5.0,82,0.00,,,0.00,weatherlink.com 1.10,2013-06-18 08:40:00,
2013-06-18 03:55:00,57.7,52.0,29.85,NNE,16,1.0,5.0,81,0.00,,,0.00,weatherlink.com 1.10,2013-06-18 08:55:00,
2013-06-18 04:10:00,57.5,52.0,29.86,NNE,19,0.0,4.0,82,0.00,,,0.00,weatherlink.com 1.10,2013-06-18 09:10:00,
2013-06-18 04:25:00,57.2,52.0,29.86,NE,48,0.0,3.0,83,0.00,,,0.00,weatherlink.com 1.10,2013-06-18 09:25:00,
2013-06-18 04:40:00,57.0,53.0,29.86,North,5,0.0,7.0,85,0.00,,,0.00,weatherlink.com 1.10,2013-06-18 09:40:00,
2013-06-18 04:55:00,56.9,53.0,29.87,North,5,1.0,5.0,85,0.00,,,0.00,weatherlink.com 1.10,2013-06-18 09:55:00,
2013-06-18 05:10:00,56.8,52.0,29.88,NNW,346,3.0,6.0,85,0.00,,,0.00,weatherlink.com 1.10,2013-06-18 10:10:00,
2013-06-18 05:25:00,56.8,52.0,29.88,North,350,2.0,6.0,84,0.00,,,0.00,weatherlink.com 1.10,2013-06-18 10:25:00,
2013-06-18 05:40:00,56.9,52.0,29.88,NNE,26,0.0,5.0,83,0.00,,,0.00,weatherlink.com 1.10,2013-06-18 10:40:00,
2013-06-18 05:55:00,57.0,52.0,29.89,East,91,1.0,10.0,82,0.00,,,0.00,weatherlink.com 1.10,2013-06-18 10:55:00,
2013-06-18 06:10:00,57.0,52.0,29.90,ENE,58,0.0,7.0,82,0.00,,,0.00,weatherlink.com 1.10,2013-06-18 11:10:00,
2013-06-18 06:25:00,57.1,52.0,29.91,NE,42,0.0,6.0,83,0.00,,,0.00,weatherlink.com 1.10,2013-06-18 11:25:00,
2013-06-18 06:40:00,57.2,52.0,29.92,NE,40,0.0,5.0,83,0.00,,,0.00,weatherlink.com 1.10,2013-06-18 11:40:00,
2013-06-18 06:55:00,57.2,52.0,29.92,NNE,24,0.0,5.0,83,0.00,,,0.00,weatherlink.com 1.10,2013-06-18 11:55:00,
2013-06-18 07:10:00,57.3,52.0,29.93,North,5,1.0,6.0,83,0.00,,,0.00,weatherlink.com 1.10,2013-06-18 12:10:00,
2013-06-18 07:25:00,58.0,53.0,29.92,North,5,0.0,7.0,82,0.00,,,0.00,weatherlink.com 1.10,2013-06-18 12:25:00,
2013-06-18 07:40:00,58.7,53.0,29.93,ENE,58,0.0,6.0,80,0.00,,,0.00,weatherlink.com 1.10,2013-06-18 12:40:00,
2013-06-18 07:55:00,59.1,53.0,29.93,NE,40,0.0,5.0,79,0.00,,,0.00,weatherlink.com 1.10,2013-06-18 12:55:00,
2013-06-18 08:10:00,59.3,53.0,29.94,NNE,17,1.0,6.0,79,0.00,,,0.00,weatherlink.com 1.10,2013-06-18 13:10:00,
2013-06-18 08:25:00,59.9,53.0,29.94,East,84,0.0,6.0,78,0.00,,,0.00,weatherlink.com 1.10,2013-06-18 13:25:00,
2013-06-18 08:40:00,60.7,53.0,29.94,ENE,59,1.0,5.0,76,0.00,,,0.00,weatherlink.com 1.10,2013-06-18 13:40:00,
2013-06-18 08:55:00,61.7,54.0,29.94,North,355,3.0,13.0,75,0.00,,,0.00,weatherlink.com 1.10,2013-06-18 13:55:00,
2013-06-18 09:10:00,62.5,54.0,29.94,East,85,0.0,6.0,74,0.00,,,0.00,weatherlink.com 1.10,2013-06-18 14:10:00,
2013-06-18 09:25:00,62.2,53.0,29.94,North,5,0.0,7.0,73,0.00,,,0.00,weatherlink.com 1.10,2013-06-18 14:25:00,
2013-06-18 09:40:00,62.2,54.0,29.94,North,5,3.0,6.0,74,0.00,,,0.00,weatherlink.com 1.10,2013-06-18 14:40:00,
2013-06-18 09:55:00,63.8,55.0,29.93,NNE,24,1.0,7.0,73,0.00,,,0.00,weatherlink.com 1.10,2013-06-18 14:55:00,
2013-06-18 10:10:00,64.3,55.0,29.94,East,90,0.0,4.0,71,0.00,,,0.00,weatherlink.com 1.10,2013-06-18 15:10:00,
2013-06-18 10:26:00,66.1,56.0,29.94,NE,40,0.0,8.0,69,0.00,,,0.00,weatherlink.com 1.10,2013-06-18 15:26:00,
2013-06-18 10:41:00,67.6,56.0,29.94,North,355,0.0,6.0,67,0.00,,,0.00,weatherlink.com 1.10,2013-06-18 15:41:00,
2013-06-18 10:56:00,68.8,56.0,29.94,East,90,0.0,7.0,64,0.00,,,0.00,weatherlink.com 1.10,2013-06-18 15:56:00,
2013-06-18 11:11:00,69.7,56.0,29.94,West,279,0.0,2.0,62,0.00,,,0.00,weatherlink.com 1.10,2013-06-18 16:11:00,
2013-06-18 11:26:00,70.2,56.0,29.94,NE,35,1.0,4.0,62,0.00,,,0.00,weatherlink.com 1.10,2013-06-18 16:26:00,
2013-06-18 11:41:00,70.3,56.0,29.94,North,355,1.0,7.0,60,0.00,,,0.00,weatherlink.com 1.10,2013-06-18 16:41:00,
2013-06-18 11:56:00,70.5,55.0,29.94,NNE,15,6.0,12.0,59,0.00,,,0.00,weatherlink.com 1.10,2013-06-18 16:56:00,
2013-06-18 12:11:00,71.3,57.0,29.93,NNW,346,5.0,8.0,61,0.00,,,0.00,weatherlink.com 1.10,2013-06-18 17:11:00,
2013-06-18 12:26:00,71.9,57.0,29.93,WNW,298,0.0,6.0,59,0.00,,,0.00,weatherlink.com 1.10,2013-06-18 17:26:00,
2013-06-18 12:41:00,72.7,56.0,29.93,NW,322,0.0,9.0,57,0.00,,,0.00,weatherlink.com 1.10,2013-06-18 17:41:00,
2013-06-18 12:56:00,72.3,57.0,29.94,NNE,23,4.0,9.0,58,0.00,,,0.00,weatherlink.com 1.10,2013-06-18 17:56:00,
2013-06-18 13:11:00,72.9,56.0,29.94,NNE,24,0.0,8.0,55,0.00,,,0.00,weatherlink.com 1.10,2013-06-18 18:11:00,
2013-06-18 13:26:00,73.4,56.0,29.94,NE,38,1.0,8.0,54,0.00,,,0.00,weatherlink.com 1.10,2013-06-18 18:26:00,
2013-06-18 13:41:00,73.5,57.0,29.94,SSE,148,1.0,7.0,56,0.00,,,0.00,weatherlink.com 1.10,2013-06-18 18:41:00,
2013-06-18 13:56:00,74.0,57.0,29.94,North,350,1.0,7.0,56,0.00,,,0.00,weatherlink.com 1.10,2013-06-18 18:56:00,
2013-06-18 14:11:00,74.1,56.0,29.94,North,360,6.0,11.0,54,0.00,,,0.00,weatherlink.com 1.10,2013-06-18 19:11:00,
2013-06-18 14:26:00,74.4,56.0,29.94,ESE,111,2.0,8.0,53,0.00,,,0.00,weatherlink.com 1.10,2013-06-18 19:26:00,
2013-06-18 14:41:00,74.4,57.0,29.94,NNE,15,0.0,7.0,54,0.00,,,0.00,weatherlink.com 1.10,2013-06-18 19:41:00,
2013-06-18 14:56:00,75.1,59.0,29.94,ESE,117,0.0,8.0,58,0.00,,,0.00,weatherlink.com 1.10,2013-06-18 19:56:00,
2013-06-18 15:11:00,75.0,58.0,29.94,North,9,4.0,10.0,55,0.00,,,0.00,weatherlink.com 1.10,2013-06-18 20:11:00,
2013-06-18 15:26:00,74.7,57.0,29.94,NE,35,0.0,8.0,54,0.00,,,0.00,weatherlink.com 1.10,2013-06-18 20:26:00,
2013-06-18 15:41:00,74.7,58.0,29.94,NNE,28,0.0,8.0,57,0.00,,,0.00,weatherlink.com 1.10,2013-06-18 20:41:00,
2013-06-18 15:56:00,74.4,58.0,29.94,ENE,74,0.0,5.0,57,0.00,,,0.00,weatherlink.com 1.10,2013-06-18 20:56:00,
2013-06-18 16:11:00,74.5,59.0,29.94,North,355,3.0,6.0,58,0.00,,,0.00,weatherlink.com 1.10,2013-06-18 21:11:00,
2013-06-18 16:26:00,74.2,58.0,29.93,ESE,111,0.0,8.0,58,0.00,,,0.00,weatherlink.com 1.10,2013-06-18 21:26:00,
2013-06-18 16:41:00,73.9,59.0,29.93,North,5,0.0,7.0,59,0.00,,,0.00,weatherlink.com 1.10,2013-06-18 21:41:00,
2013-06-18 16:56:00,73.6,58.0,29.93,North,5,0.0,6.0,59,0.00,,,0.00,weatherlink.com 1.10,2013-06-18 21:56:00,
2013-06-18 17:11:00,73.1,57.0,29.93,NE,53,2.0,8.0,57,0.00,,,0.00,weatherlink.com 1.10,2013-06-18 22:11:00,
2013-06-18 17:26:00,72.7,57.0,29.93,NE,49,1.0,8.0,58,0.00,,,0.00,weatherlink.com 1.10,2013-06-18 22:26:00,
2013-06-18 17:41:00,72.2,57.0,29.93,NNE,15,3.0,8.0,60,0.00,,,0.00,weatherlink.com 1.10,2013-06-18 22:41:00,
2013-06-18 17:56:00,72.1,56.0,29.93,NE,35,3.0,4.0,58,0.00,,,0.00,weatherlink.com 1.10,2013-06-18 22:56:00,
2013-06-18 18:11:00,71.8,57.0,29.93,North,5,0.0,4.0,60,0.00,,,0.00,weatherlink.com 1.10,2013-06-18 23:11:00,
2013-06-18 18:26:00,71.6,56.0,29.94,East,85,0.0,6.0,59,0.00,,,0.00,weatherlink.com 1.10,2013-06-18 23:26:00,
2013-06-18 18:41:00,71.2,56.0,29.94,NNE,13,2.0,8.0,58,0.00,,,0.00,weatherlink.com 1.10,2013-06-18 23:41:00,
2013-06-18 18:56:00,70.7,56.0,29.94,East,89,1.0,6.0,60,0.00,,,0.00,weatherlink.com 1.10,2013-06-18 23:56:00,
2013-06-18 19:11:00,70.2,56.0,29.95,North,355,5.0,5.0,61,0.00,,,0.00,weatherlink.com 1.10,2013-06-19 00:11:00,
2013-06-18 19:26:00,69.8,56.0,29.94,ENE,65,0.0,4.0,61,0.00,,,0.00,weatherlink.com 1.10,2013-06-19 00:26:00,
2013-06-18 19:41:00,69.3,55.0,29.95,NNE,33,1.0,4.0,61,0.00,,,0.00,weatherlink.com 1.10,2013-06-19 00:41:00,
2013-06-18 19:56:00,68.8,55.0,29.94,NNE,26,1.0,6.0,61,0.00,,,0.00,weatherlink.com 1.10,2013-06-19 00:56:00,
2013-06-18 20:11:00,68.2,55.0,29.95,NNE,18,0.0,2.0,63,0.00,,,0.00,weatherlink.com 1.10,2013-06-19 01:11:00,
2013-06-18 20:26:00,67.6,55.0,29.95,NNW,347,0.0,1.0,64,0.00,,,0.00,weatherlink.com 1.10,2013-06-19 01:26:00,
2013-06-18 20:41:00,66.8,55.0,29.95,NNW,347,0.0,0.0,66,0.00,,,0.00,weatherlink.com 1.10,2013-06-19 01:41:00,
2013-06-18 20:56:00,65.9,54.0,29.96,East,86,1.0,3.0,66,0.00,,,0.00,weatherlink.com 1.10,2013-06-19 01:56:00,
2013-06-18 21:11:00,65.2,52.0,29.96,NE,49,0.0,1.0,63,0.00,,,0.00,weatherlink.com 1.10,2013-06-19 02:11:00,
2013-06-18 21:26:00,64.5,51.0,29.97,NE,50,0.0,0.0,61,0.00,,,0.00,weatherlink.com 1.10,2013-06-19 02:26:00,
2013-06-18 21:41:00,63.8,50.0,29.98,ENE,66,0.0,0.0,62,0.00,,,0.00,weatherlink.com 1.10,2013-06-19 02:41:00,
2013-06-18 21:56:00,63.1,50.0,29.98,NE,41,0.0,1.0,63,0.00,,,0.00,weatherlink.com 1.10,2013-06-19 02:56:00,
2013-06-18 22:11:00,62.5,50.0,29.99,NE,36,0.0,1.0,65,0.00,,,0.00,weatherlink.com 1.10,2013-06-19 03:11:00,
2013-06-18 22:27:00,62.0,51.0,29.99,East,98,0.0,0.0,67,0.00,,,0.00,weatherlink.com 1.10,2013-06-19 03:27:00,
2013-06-18 22:42:00,61.2,51.0,29.99,East,88,0.0,0.0,69,0.00,,,0.00,weatherlink.com 1.10,2013-06-19 03:42:00,
2013-06-18 22:57:00,60.7,51.0,29.99,East,84,0.0,1.0,70,0.00,,,0.00,weatherlink.com 1.10,2013-06-19 03:57:00,
2013-06-18 23:12:00,60.1,51.0,29.99,NNW,346,1.0,2.0,72,0.00,,,0.00,weatherlink.com 1.10,2013-06-19 04:12:00,
2013-06-18 23:27:00,59.5,51.0,29.99,NNW,346,0.0,1.0,73,0.00,,,0.00,weatherlink.com 1.10,2013-06-19 04:27:00,
2013-06-18 23:42:00,59.1,50.0,29.99,North,355,0.0,2.0,72,0.00,,,0.00,weatherlink.com 1.10,2013-06-19 04:42:00,
2013-06-18 23:57:00,58.7,50.0,30.00,NNW,339,0.0,2.0,72,0.00,,,0.00,weatherlink.com 1.10,2013-06-19 04:57:00,